COSMOS 1275 DEB, 12675

Orbit data source: Space-Track

COSMOS 1275 DEB, 12675 is space debris in LEO originally from a launch on Thu, 04 Jun 1981 UTC launched from the Plesetsk Missile And Space Complex (PKMTR). Debris objects in space refer to the collection of defunct objects orbiting the Earth. Examples of debris include non-operational satellites, rocket bodies, and fragments generated from explosions, collisions, or faulty payload assembly.

Loading next visibility...
Identifier
12675, 1981-053AF
Orbit
LEO
Country
Flag of CISCIS
Related business
Manufacturer
Unknown
Mission
Spacecraft
Bus & Motor
Unknown
Mass
Unknown
Launch date (UTC)
1981-06-04 (44 years ago)
Launch vehicle
Unknown
Launch site
Plesetsk Missile And Space Complex (PKMTR)
Object type
Payload
Rocket body
Debris
Shape & HBR
Unknown shape, 0.3 m
Radar Cross Section
Medium (>0.1 m² and <1 m²)

Expand to show TLE details & history
Last TLE update: 9 hours ago

TLE from 9 hours ago
0 COSMOS 1275 DEB
1 12675U 81053AF  25288.90982935  .00000930  00000-0  85962-3 0  9993
2 12675  82.9327  85.2005 0064293 252.2263 262.1462 13.80623181214834
Epoch: 2025-10-15T21:50Z
TLE epoch observation values (Epoch: 2025-10-15T21:50:09.255Z)
Latitude
26.17439°
Longitude
-90.49052°
Altitude
971.605 km
Speed
7.365 km/s
True Right ascension
17h 26m 54s
True Declination
26° 02' 33"
Sunlit
Object was in daylight at epoch
Visualization orbit readout
Latitude
Unknown
Longitude
Unknown
Altitude
Unknown
Speed
Unknown
Apparent Right ascension
Unknown
Apparent Declination
Unknown
Sunlit
N/A
Visualization observer readout
Local Sidereal Time
01:08:56
Azimuth
Unknown
Elevation
Unknown
Doppler factor
Unknown
Orbital elements
Apogee altitude
1,005.99 km
Perigee altitude
911.647 km
Semi-major axis
7,336.955 km
Eccentricity
0.00643
Inclination
82.9327°
RAAN
85.2005°
Arg. of periapsis
252.2263°
True anomaly
261.41719°
Mean anomaly
262.1462°
Eccentric anomaly
261.78161°
Mean motion
3.45358 °/min
Orbital period
104.24 mins
BSTAR
0.00085962
Loading maneuver chart data...
Computing Atmospheric mass density...

Documentation

Showing up to 5 results
|